Total_Precipitation_Accumulation
0.00 0.00 0.00 0.00 0.00 0.00 0.00 0.00 0.00 0.00 0.00 0.00 0.00 0.00 0.00 0.00 0.00 0.00 0.00 0.00 0.00 0.00 0.01 0.01 0.02 0.03 0.05 0.07 0.09 0.10 0.10 0.10 0.10 0.10 0.10 0.11 0.11 0.12 0.13 0.14 0.14 0.15 0.16
0.00 0.00 0.00 0.00 0.00 0.00 0.00 0.00 0.00 0.00 0.00 0.00 0.00 0.00 0.00 0.00 0.00 0.00 0.00 0.00 0.00 0.00 0.00 0.01 0.02 0.04 0.06 0.08 0.10 0.10 0.11 0.10 0.10 0.10 0.11 0.12 0.12 0.13 0.14 0.15 0.16 0.16 0.17
0.00 0.00 0.00 0.00 0.00 0.00 0.00 0.00 0.00 0.00 0.00 0.00 0.00 0.00 0.00 0.00 0.00 0.00 0.00 0.00 0.00 0.00 0.00 0.01 0.02 0.03 0.05 0.06 0.09 0.11 0.12 0.12 0.11 0.12 0.13 0.14 0.15 0.15 0.16 0.17 0.18 0.20 0.20
0.00 0.00 0.00 0.00 0.00 0.00 0.00 0.00 0.00 0.00 0.00 0.00 0.00 0.00 0.00 0.00 0.00 0.00 0.00 0.00 0.00 0.00 0.00 0.01 0.02 0.03 0.04 0.05 0.07 0.10 0.13 0.13 0.13 0.13 0.15 0.16 0.18 0.19 0.21 0.22 0.24 0.25 0.26
0.02 0.02 0.01 0.01 0.01 0.01 0.01 0.01 0.01 0.01 0.01 0.01 0.00 0.00 0.01 0.01 0.00 0.00 0.00 0.00 0.00 0.00 0.01 0.01 0.01 0.02 0.03 0.04 0.06 0.09 0.14 0.15 0.15 0.14 0.15 0.17 0.18 0.21 0.25 0.29 0.32 0.34 0.35
0.07 0.05 0.03 0.03 0.03 0.03 0.03 0.03 0.02 0.02 0.02 0.02 0.02 0.01 0.01 0.01 0.01 0.01 0.01 0.01 0.01 0.01 0.01 0.01 0.02 0.02 0.02 0.04 0.06 0.08 0.13 0.16 0.17 0.17 0.17 0.18 0.19 0.22 0.26 0.30 0.35 0.38 0.43
0.16 0.11 0.08 0.08 0.08 0.06 0.05 0.05 0.05 0.04 0.03 0.04 0.04 0.03 0.01 0.01 0.01 0.01 0.02 0.02 0.02 0.02 0.02 0.03 0.03 0.03 0.03 0.04 0.06 0.07 0.10 0.16 0.21 0.22 0.22 0.22 0.24 0.27 0.30 0.34 0.37 0.40 0.45
0.24 0.19 0.15 0.13 0.12 0.11 0.09 0.08 0.08 0.08 0.07 0.08 0.09 0.10 0.06 0.02 0.01 0.02 0.02 0.03 0.03 0.03 0.03 0.04 0.04 0.05 0.05 0.05 0.06 0.07 0.09 0.14 0.22 0.31 0.35 0.34 0.35 0.37 0.40 0.44 0.47 0.50 0.54
0.31 0.26 0.23 0.22 0.21 0.19 0.17 0.17 0.17 0.16 0.15 0.14 0.15 0.18 0.14 0.07 0.04 0.03 0.03 0.04 0.05 0.04 0.05 0.05 0.06 0.06 0.07 0.08 0.09 0.11 0.15 0.18 0.25 0.36 0.46 0.50 0.50 0.51 0.55 0.59 0.63 0.67 0.68
0.31 0.31 0.30 0.29 0.27 0.26 0.24 0.28 0.32 0.31 0.27 0.20 0.19 0.18 0.20 0.18 0.17 0.11 0.05 0.05 0.06 0.05 0.06 0.06 0.07 0.08 0.09 0.11 0.13 0.18 0.24 0.29 0.36 0.45 0.55 0.66 0.72 0.77 0.82 0.86 0.89 0.92 0.91
0.24 0.28 0.31 0.31 0.28 0.30 0.33 0.37 0.37 0.39 0.37 0.33 0.30 0.30 0.30 0.26 0.23 0.23 0.14 0.08 0.08 0.09 0.09 0.10 0.11 0.13 0.15 0.18 0.21 0.27 0.35 0.41 0.50 0.59 0.71 0.86 0.99 1.08 1.13 1.17 1.20 1.20 1.18
0.17 0.20 0.24 0.27 0.30 0.33 0.36 0.40 0.42 0.46 0.47 0.47 0.44 0.40 0.40 0.37 0.32 0.35 0.33 0.23 0.21 0.19 0.20 0.22 0.24 0.26 0.28 0.30 0.32 0.39 0.45 0.52 0.61 0.70 0.81 0.98 1.12 1.21 1.28 1.34 1.37 1.38 1.38
0.13 0.16 0.20 0.24 0.29 0.34 0.39 0.43 0.44 0.45 0.49 0.51 0.50 0.47 0.46 0.43 0.43 0.48 0.52 0.47 0.40 0.35 0.36 0.38 0.38 0.39 0.39 0.41 0.42 0.49 0.49 0.54 0.58 0.66 0.76 0.95 1.04 1.01 1.01 1.07 1.16 1.23 1.29
0.15 0.19 0.21 0.24 0.27 0.31 0.34 0.37 0.38 0.39 0.42 0.44 0.45 0.46 0.44 0.42 0.42 0.45 0.53 0.63 0.63 0.54 0.49 0.49 0.49 0.50 0.50 0.48 0.48 0.52 0.47 0.53 0.56 0.60 0.68 0.76 0.76 0.68 0.65 0.69 0.79 0.88 0.97
0.12 0.14 0.16 0.19 0.21 0.23 0.25 0.28 0.29 0.29 0.31 0.33 0.34 0.36 0.36 0.35 0.35 0.38 0.44 0.57 0.73 0.72 0.59 0.52 0.53 0.54 0.54 0.52 0.52 0.48 0.41 0.47 0.50 0.51 0.55 0.58 0.56 0.54 0.54 0.56 0.61 0.69 0.77
0.09 0.10 0.12 0.14 0.16 0.17 0.17 0.18 0.19 0.19 0.21 0.22 0.24 0.25 0.27 0.27 0.29 0.33 0.38 0.47 0.59 0.69 0.64 0.50 0.44 0.45 0.47 0.45 0.45 0.39 0.35 0.42 0.43 0.43 0.44 0.46 0.47 0.50 0.52 0.52 0.53 0.57 0.66
0.06 0.07 0.09 0.11 0.11 0.11 0.11 0.12 0.12 0.13 0.15 0.16 0.17 0.19 0.22 0.23 0.26 0.29 0.33 0.38 0.43 0.50 0.53 0.44 0.37 0.35 0.35 0.33 0.32 0.29 0.25 0.25 0.25 0.29 0.32 0.33 0.35 0.39 0.44 0.47 0.49 0.51 0.55
0.05 0.06 0.06 0.06 0.06 0.06 0.07 0.08 0.09 0.11 0.13 0.15 0.16 0.18 0.21 0.23 0.27 0.29 0.31 0.33 0.33 0.34 0.38 0.36 0.28 0.24 0.21 0.20 0.19 0.17 0.15 0.15 0.14 0.16 0.21 0.23 0.26 0.31 0.35 0.38 0.40 0.43 0.46
0.05 0.05 0.04 0.04 0.05 0.05 0.06 0.07 0.09 0.11 0.13 0.16 0.19 0.23 0.25 0.27 0.29 0.29 0.28 0.26 0.24 0.23 0.25 0.28 0.21 0.15 0.13 0.11 0.11 0.10 0.09 0.09 0.09 0.11 0.13 0.15 0.20 0.25 0.29 0.32 0.33 0.34 0.34
0.06 0.06 0.05 0.05 0.06 0.08 0.09 0.11 0.13 0.16 0.19 0.21 0.24 0.27 0.29 0.29 0.28 0.25 0.21 0.19 0.19 0.18 0.18 0.20 0.21 0.16 0.13 0.09 0.10 0.10 0.09 0.07 0.07 0.06 0.07 0.08 0.11 0.14 0.16 0.18 0.22 0.23 0.25
0.06 0.07 0.08 0.09 0.11 0.12 0.16 0.19 0.22 0.26 0.29 0.32 0.32 0.30 0.27 0.24 0.20 0.17 0.15 0.15 0.15 0.17 0.23 0.27 0.25 0.19 0.13 0.11 0.10 0.09 0.11 0.09 0.06 0.04 0.04 0.03 0.04 0.05 0.06 0.09 0.15 0.20 0.26
0.10 0.12 0.15 0.19 0.25 0.29 0.36 0.35 0.32 0.31 0.30 0.27 0.24 0.21 0.19 0.17 0.14 0.13 0.13 0.13 0.18 0.26 0.33 0.35 0.29 0.20 0.10 0.06 0.08 0.13 0.18 0.22 0.15 0.04 0.06 0.04 0.03 0.04 0.07 0.12 0.19 0.26 0.33
0.22 0.26 0.30 0.35 0.38 0.40 0.38 0.29 0.24 0.21 0.22 0.21 0.17 0.13 0.10 0.08 0.07 0.05 0.06 0.11 0.16 0.21 0.24 0.23 0.18 0.11 0.10 0.12 0.23 0.33 0.29 0.28 0.17 0.05 0.06 0.07 0.04 0.06 0.08 0.14 0.25 0.29 0.36
0.37 0.40 0.41 0.43 0.42 0.40 0.34 0.25 0.19 0.15 0.13 0.10 0.08 0.06 0.05 0.04 0.04 0.07 0.13 0.18 0.12 0.08 0.07 0.07 0.10 0.13 0.16 0.16 0.23 0.33 0.30 0.22 0.10 0.04 0.07 0.15 0.10 0.10 0.09 0.13 0.23 0.26 0.29
0.46 0.45 0.42 0.38 0.31 0.25 0.20 0.14 0.10 0.07 0.05 0.04 0.03 0.03 0.05 0.05 0.06 0.19 0.27 0.23 0.10 0.03 0.02 0.07 0.12 0.12 0.10 0.09 0.11 0.27 0.38 0.40 0.25 0.07 0.06 0.12 0.10 0.11 0.15 0.17 0.22 0.26 0.27
0.35 0.31 0.26 0.22 0.17 0.13 0.09 0.06 0.04 0.03 0.03 0.02 0.03 0.03 0.03 0.05 0.14 0.26 0.24 0.19 0.10 0.06 0.09 0.06 0.03 0.01 0.01 0.02 0.08 0.23 0.57 0.84 0.59 0.29 0.09 0.22 0.24 0.30 0.42 0.22 0.21 0.24 0.25